SCP
0 0 0 0 0 0 2 2 2 1 1 1 1 0 0 0 0 0 0 0 0 0 0 0 0 0 0 0 0 0 0 0
0 0 0 0 0 0 1 3 2 2 1 1 1 1 0 0 0 0 0 0 0 0 0 0 0 0 0 0 0 0 0 0
0 0 0 0 0 0 0 0 3 2 2 1 2 1 0 0 0 0 0 0 0 0 0 0 0 0 0 0 0 0 0 0
0 0 0 0 0 0 0 0 0 2 2 2 2 1 0 0 0 0 0 0 0 0 0 0 0 0 0 0 0 0 0 0
0 0 0 0 0 0 0 0 0 1 2 2 1 1 1 0 0 0 0 0 0 0 0 0 0 0 0 0 0 0 0 0
0 0 0 0 0 0 0 0 0 0 0 2 2 1 1 1 0 0 0 0 0 0 0 0 0 0 0 0 0 0 0 0
0 0 0 0 0 0 0 0 0 0 0 0 1 1 1 1 0 0 0 0 0 0 -0 -0 0 0 0 0 0 0 0 0
0 0 0 0 0 0 0 0 0 0 0 0 0 1 1 0 0 0 0 0 0 0 0 0 0 0 0 0 0 0 0 0
0 0 0 0 0 0 0 0 0 0 0 0 0 0 1 1 1 0 0 0 0 0 0 0 0 0 0 0 0 0 0 0
0 0 0 0 0 0 0 0 0 0 0 0 0 0 0 1 1 1 0 0 0 0 0 0 0 0 0 0 0 0 0 0
0 0 0 0 0 0 0 0 0 0 0 0 0 0 0 1 1 0 0 0 0 0 0 0 0 0 0 0 0 0 0 0
0 0 0 0 0 0 0 0 0 0 0 0 0 0 0 0 1 0 0 0 0 0 0 0 0 0 0 0 0 0 0 0
0 0 0 0 0 0 0 0 0 0 0 0 0 0 0 0 0 0 0 0 0 0 0 0 0 0 0 0 0 0 0 0
0 0 0 0 0 0 0 0 0 0 0 0 0 0 0 0 0 0 1 1 0 0 0 0 0 0 0 0 0 0 0 0
0 0 0 0 0 0 0 0 0 0 0 0 0 0 0 0 0 0 1 1 1 0 0 0 0 0 0 0 0 0 0 0
0 0 0 0 0 0 0 0 0 0 0 0 0 0 0 0 0 0 0 1 1 0 0 0 0 0 0 0 0 0 0 0
0 0 0 0 0 0 0 0 0 0 0 0 0 0 0 0 0 0 0 0 1 1 0 0 0 0 0 0 0 0 0 0
0 0 0 0 0 0 0 0 0 0 0 0 0 0 0 0 0 0 0 0 0 1 1 0 0 0 0 0 0 0 0 0
-0 0 -0 -0 0 0 0 0 0 0 0 0 0 0 0 0 0 0 0 0 0 0 0 1 0 0 0 0 0 0 0 0
Wind_Speed_500mb
85 73 65 49 21 67 88 83 77 70 74 63 61 66 70 76 89 88 87 80 76 70 62 68 76 80 84 86 81 69 61 63
83 71 64 56 23 20 74 90 88 81 81 79 71 72 73 78 101 99 92 85 75 58 55 68 78 82 85 83 85 73 74 68
100 83 66 60 52 5 50 59 93 91 86 87 80 80 77 82 101 105 87 79 84 82 74 72 81 78 82 81 87 77 77 71
95 96 74 64 60 35 11 54 60 99 94 87 78 78 77 75 93 102 96 94 88 97 106 96 87 73 79 86 84 86 79 69
81 85 86 70 64 53 28 18 65 59 86 84 91 92 93 88 93 103 85 96 89 90 101 106 90 85 70 83 84 81 80 74
76 76 78 77 68 59 44 15 25 56 54 86 91 95 92 94 91 89 92 95 97 90 100 93 84 103 81 81 83 81 71 73
70 74 78 80 72 62 51 39 5 30 62 59 90 95 93 89 87 87 93 103 95 98 105 108 101 112 98 83 81 67 72 80
79 80 86 92 81 78 57 50 31 9 43 55 61 84 86 95 93 85 81 111 106 103 113 118 105 89 85 80 80 70 77 81
82 76 80 87 88 82 67 55 48 17 15 33 36 60 76 83 83 74 113 108 119 109 111 114 118 101 101 85 73 76 68 76
83 86 77 85 87 83 75 67 47 34 15 17 46 49 64 83 88 95 101 104 112 111 113 110 122 109 95 88 82 88 82 80
85 89 78 82 86 86 78 65 56 42 27 16 28 38 59 69 88 94 96 102 110 116 121 115 114 110 94 95 90 88 91 86
68 80 84 71 74 84 89 73 65 45 37 21 20 35 57 64 80 91 90 91 98 115 114 122 117 117 109 106 102 97 100 97
66 64 71 76 69 83 87 84 69 60 45 33 19 29 43 67 84 84 93 98 92 103 112 120 118 120 128 116 110 114 101 99
71 75 82 81 88 78 93 94 79 67 55 47 27 14 29 47 71 99 89 97 93 93 102 110 111 127 135 136 115 113 114 109
78 82 85 85 88 96 91 98 90 77 70 57 47 32 20 41 30 82 100 100 101 95 104 101 109 117 125 132 130 115 114 115
78 85 84 78 86 94 101 99 99 93 86 77 59 52 35 32 41 42 100 100 108 106 108 109 114 117 123 125 129 122 121 116
80 82 85 90 93 94 107 106 100 99 98 94 82 56 50 41 38 55 47 97 102 111 114 121 118 117 114 122 123 125 129 122
82 76 71 73 78 83 95 102 100 95 98 98 95 78 64 48 41 49 60 50 105 110 108 130 128 124 115 115 116 119 123 126
80 82 69 80 78 78 82 88 97 98 95 96 96 95 84 60 39 47 54 66 56 95 115 122 129 136 116 111 109 109 116 119
Wind_Direction_500mb
349 351 4 19 219 221 218 209 205 204 202 200 206 206 208 207 197 191 189 184 190 187 186 193 188 186 185 187 190 196 202 192
354 351 1 12 40 196 213 211 205 201 201 200 201 204 206 212 197 195 198 191 188 184 191 204 195 193 192 192 197 201 200 200
359 355 359 11 12 78 197 207 214 206 206 207 206 203 204 210 203 203 207 200 195 192 186 203 200 199 201 200 201 199 196 187
357 358 357 3 9 10 329 204 209 215 210 202 198 198 202 202 211 207 206 206 201 191 191 195 196 207 212 206 207 208 197 192
359 359 359 0 1 5 1 226 211 211 212 203 200 197 198 208 212 213 212 204 209 204 198 197 203 215 220 215 212 214 209 201
360 2 359 360 358 359 3 359 208 211 206 213 205 199 204 202 208 214 213 206 208 206 194 189 205 214 225 220 209 209 215 219
1 6 5 8 4 1 8 8 302 214 212 216 210 206 196 200 205 208 212 209 206 203 197 200 198 206 214 218 215 204 215 218
357 4 8 9 8 4 2 10 5 311 217 218 203 210 203 205 199 206 214 212 212 208 202 205 202 208 211 213 218 211 209 220
0 358 5 6 7 7 0 3 6 350 229 223 228 204 209 226 211 207 215 215 215 217 206 207 207 208 218 217 214 199 210 220
359 2 6 7 6 7 4 2 1 5 328 236 219 219 210 215 223 217 213 212 217 218 211 209 210 212 211 212 203 214 219 225
1 4 2 5 7 10 8 5 2 3 354 297 244 239 212 221 229 228 224 219 216 219 219 217 211 210 210 210 213 214 219 225
358 5 7 358 2 12 12 9 7 2 1 338 271 248 237 228 222 231 230 224 223 219 223 221 220 212 212 215 218 218 223 227
359 2 6 10 2 11 12 14 11 12 7 348 303 257 233 235 232 230 236 230 225 226 221 223 225 217 216 218 222 227 224 227
359 1 6 7 7 4 18 17 16 15 12 355 339 293 233 243 243 236 234 232 230 227 229 224 225 224 219 220 224 223 224 224
356 1 8 5 5 7 13 19 20 19 17 7 351 332 277 231 249 239 244 236 235 232 228 228 224 225 221 224 221 225 227 228
357 1 2 4 5 2 11 21 18 19 19 14 0 347 315 263 243 248 238 242 237 235 231 228 227 224 225 222 221 223 228 229
352 356 358 360 5 1 5 16 16 15 17 16 9 354 340 301 258 246 259 240 243 235 233 231 228 228 228 227 228 226 228 231
354 351 352 354 357 3 7 7 10 14 15 16 15 9 355 337 287 250 240 253 242 235 237 234 230 229 229 230 230 230 230 231
356 354 350 354 357 360 2 4 5 10 13 14 16 14 3 351 316 265 247 242 247 236 233 237 232 231 228 230 231 231 232 234
Wind_Speed_850mb
85 73 65 49 21 67 88 83 77 70 74 63 61 66 70 76 89 88 87 80 76 70 62 68 76 80 84 86 81 69 61 63
83 71 64 56 23 20 74 90 88 81 81 79 71 72 73 78 101 99 92 85 75 58 55 68 78 82 85 83 85 73 74 68
100 83 66 60 52 5 50 59 93 91 86 87 80 80 77 82 101 105 87 79 84 82 74 72 81 78 82 81 87 77 77 71
95 96 74 64 60 35 11 54 60 99 94 87 78 78 77 75 93 102 96 94 88 97 106 96 87 73 79 86 84 86 79 69
81 85 86 70 64 53 28 18 65 59 86 84 91 92 93 88 93 103 85 96 89 90 101 106 90 85 70 83 84 81 80 74
76 76 78 77 68 59 44 15 25 56 54 86 91 95 92 94 91 89 92 95 97 90 100 93 84 103 81 81 83 81 71 73
70 74 78 80 72 62 51 39 5 30 62 59 90 95 93 89 87 87 93 103 95 98 105 108 101 112 98 83 81 67 72 80
79 80 86 92 81 78 57 50 31 9 43 55 61 84 86 95 93 85 81 111 106 103 113 118 105 89 85 80 80 70 77 81
82 76 80 87 88 82 67 55 48 17 15 33 36 60 76 83 83 74 113 108 119 109 111 114 118 101 101 85 73 76 68 76
83 86 77 85 87 83 75 67 47 34 15 17 46 49 64 83 88 95 101 104 112 111 113 110 122 109 95 88 82 88 82 80
85 89 78 82 86 86 78 65 56 42 27 16 28 38 59 69 88 94 96 102 110 116 121 115 114 110 94 95 90 88 91 86
68 80 84 71 74 84 89 73 65 45 37 21 20 35 57 64 80 91 90 91 98 115 114 122 117 117 109 106 102 97 100 97
66 64 71 76 69 83 87 84 69 60 45 33 19 29 43 67 84 84 93 98 92 103 112 120 118 120 128 116 110 114 101 99
71 75 82 81 88 78 93 94 79 67 55 47 27 14 29 47 71 99 89 97 93 93 102 110 111 127 135 136 115 113 114 109
78 82 85 85 88 96 91 98 90 77 70 57 47 32 20 41 30 82 100 100 101 95 104 101 109 117 125 132 130 115 114 115
78 85 84 78 86 94 101 99 99 93 86 77 59 52 35 32 41 42 100 100 108 106 108 109 114 117 123 125 129 122 121 116
80 82 85 90 93 94 107 106 100 99 98 94 82 56 50 41 38 55 47 97 102 111 114 121 118 117 114 122 123 125 129 122
82 76 71 73 78 83 95 102 100 95 98 98 95 78 64 48 41 49 60 50 105 110 108 130 128 124 115 115 116 119 123 126
80 82 69 80 78 78 82 88 97 98 95 96 96 95 84 60 39 47 54 66 56 95 115 122 129 136 116 111 109 109 116 119
Wind_Direction_850mb
349 351 4 19 219 221 218 209 205 204 202 200 206 206 208 207 197 191 189 184 190 187 186 193 188 186 185 187 190 196 202 192
354 351 1 12 40 196 213 211 205 201 201 200 201 204 206 212 197 195 198 191 188 184 191 204 195 193 192 192 197 201 200 200
359 355 359 11 12 78 197 207 214 206 206 207 206 203 204 210 203 203 207 200 195 192 186 203 200 199 201 200 201 199 196 187
357 358 357 3 9 10 329 204 209 215 210 202 198 198 202 202 211 207 206 206 201 191 191 195 196 207 212 206 207 208 197 192
359 359 359 0 1 5 1 226 211 211 212 203 200 197 198 208 212 213 212 204 209 204 198 197 203 215 220 215 212 214 209 201
360 2 359 360 358 359 3 359 208 211 206 213 205 199 204 202 208 214 213 206 208 206 194 189 205 214 225 220 209 209 215 219
1 6 5 8 4 1 8 8 302 214 212 216 210 206 196 200 205 208 212 209 206 203 197 200 198 206 214 218 215 204 215 218
357 4 8 9 8 4 2 10 5 311 217 218 203 210 203 205 199 206 214 212 212 208 202 205 202 208 211 213 218 211 209 220
0 358 5 6 7 7 0 3 6 350 229 223 228 204 209 226 211 207 215 215 215 217 206 207 207 208 218 217 214 199 210 220
359 2 6 7 6 7 4 2 1 5 328 236 219 219 210 215 223 217 213 212 217 218 211 209 210 212 211 212 203 214 219 225
1 4 2 5 7 10 8 5 2 3 354 297 244 239 212 221 229 228 224 219 216 219 219 217 211 210 210 210 213 214 219 225
358 5 7 358 2 12 12 9 7 2 1 338 271 248 237 228 222 231 230 224 223 219 223 221 220 212 212 215 218 218 223 227
359 2 6 10 2 11 12 14 11 12 7 348 303 257 233 235 232 230 236 230 225 226 221 223 225 217 216 218 222 227 224 227
359 1 6 7 7 4 18 17 16 15 12 355 339 293 233 243 243 236 234 232 230 227 229 224 225 224 219 220 224 223 224 224
356 1 8 5 5 7 13 19 20 19 17 7 351 332 277 231 249 239 244 236 235 232 228 228 224 225 221 224 221 225 227 228
357 1 2 4 5 2 11 21 18 19 19 14 0 347 315 263 243 248 238 242 237 235 231 228 227 224 225 222 221 223 228 229
352 356 358 360 5 1 5 16 16 15 17 16 9 354 340 301 258 246 259 240 243 235 233 231 228 228 228 227 228 226 228 231
354 351 352 354 357 3 7 7 10 14 15 16 15 9 355 337 287 250 240 253 242 235 237 234 230 229 229 230 230 230 230 231
356 354 350 354 357 360 2 4 5 10 13 14 16 14 3 351 316 265 247 242 247 236 233 237 232 231 228 230 231 231 232 234